Temperature
16 17 17 17 18 18 20 23 25 25 25 25 25 25 24 23 22 20 19 18 18 19 19 18 18 18 17 17 17 17 17 17 17 17 16 16 16 16 16 16 16 16 16 16 16 16 15 16 16
16 16 17 18 18 19 21 23 25 25 25 24 24 24 24 22 21 19 18 18 18 18 18 18 18 17 17 17 17 17 17 17 16 16 16 16 16 16 16 16 16 16 16 16 15 15 16 15 15
16 16 18 18 19 20 23 24 24 24 24 24 24 24 23 22 20 19 18 18 18 18 18 18 17 17 17 17 17 16 16 16 16 16 16 16 16 16 16 16 16 16 16 15 15 15 15 15 15
15 16 18 18 20 22 23 24 24 23 24 23 23 23 21 20 20 19 18 18 18 17 18 18 17 17 17 16 16 16 16 16 16 16 16 16 16 16 16 15 15 15 15 15 15 15 15 15 15
16 17 18 18 20 22 24 24 24 23 23 23 23 22 20 19 19 19 18 18 17 17 17 17 17 17 16 16 16 16 16 16 16 15 15 15 15 15 15 15 15 15 15 15 15 15 15 15 15
16 18 18 19 21 22 23 24 23 23 23 24 23 22 19 19 19 18 18 18 17 17 17 17 17 17 16 16 16 16 16 15 15 15 15 15 15 15 15 15 15 15 15 15 15 15 15 15 15
17 17 18 20 21 22 23 23 23 23 22 23 23 21 19 18 18 18 18 17 17 17 17 17 16 16 16 16 16 16 16 15 15 15 15 15 15 15 15 15 15 15 15 15 15 15 14 14 14
16 17 18 19 21 22 23 23 22 22 22 22 22 21 19 18 18 18 18 17 17 16 16 16 16 16 16 16 16 15 15 15 15 15 15 15 15 15 14 14 14 15 15 14 14 14 14 14 14
16 16 17 20 21 21 22 21 21 21 21 21 21 20 19 18 18 18 17 17 17 16 16 16 16 16 16 15 15 15 15 15 15 15 15 14 14 14 14 14 14 14 14 14 14 14 14 14 14
16 15 18 20 20 21 21 21 21 20 20 20 20 19 19 18 17 17 17 17 17 16 16 16 16 15 15 15 15 15 15 15 14 14 14 14 14 14 14 14 14 14 14 14 14 14 14 14 14
16 16 18 19 20 20 20 20 20 20 19 20 20 19 18 18 17 17 17 17 17 16 16 16 15 15 15 15 15 15 15 14 14 14 14 14 14 14 14 14 14 14 14 14 14 14 13 13 13
17 17 18 19 18 18 19 19 19 19 20 20 19 19 18 17 17 17 17 17 17 16 16 16 15 15 15 15 15 14 14 14 14 14 14 14 14 13 13 13 13 13 13 13 13 13 13 13 13
16 17 18 18 17 17 17 18 18 18 18 19 18 18 18 17 17 17 17 17 17 16 16 16 15 15 15 15 14 14 14 14 14 14 14 14 14 13 13 13 13 13 13 13 13 13 13 13 13
17 17 17 17 17 17 17 17 17 18 18 18 18 17 17 17 17 17 17 17 17 16 16 16 16 15 15 15 14 14 14 14 14 14 14 13 13 13 13 13 13 13 13 13 13 13 12 12 12
16 16 16 16 17 17 16 15 16 18 18 18 17 17 17 17 17 17 17 17 16 16 16 16 15 15 15 15 14 14 14 14 14 14 13 13 13 13 13 13 13 12 12 12 12 12 12 12 12
15 15 14 16 16 16 15 14 17 18 18 18 18 17 17 17 17 17 17 16 16 16 16 15 15 15 15 14 14 14 14 14 14 13 13 13 13 13 13 12 12 12 12 12 12 12 12 12 12
14 14 15 16 16 16 15 15 17 18 18 17 18 18 17 17 17 17 16 16 16 16 15 15 15 15 14 14 14 14 14 13 13 13 13 13 13 13 12 12 12 12 12 12 11 11 11 11 11
14 14 15 16 16 16 15 15 17 18 18 18 18 18 18 17 17 16 16 16 15 15 15 15 15 14 14 14 13 13 13 13 13 13 13 13 12 12 12 12 12 11 11 11 11 11 11 11 11
15 15 16 16 16 15 15 15 16 17 17 17 18 18 17 17 16 16 15 15 15 15 15 14 14 14 14 13 13 13 13 13 12 12 12 12 12 12 12 12 12 11 11 11 11 11 10 10 10
14 14 15 15 15 15 14 15 16 16 16 17 17 17 17 17 16 15 15 15 14 14 14 14 14 14 13 13 13 13 13 12 12 12 12 12 12 12 12 11 11 11 11 11 10 10 10 10 9
14 13 14 15 14 14 14 14 15 16 17 17 17 17 17 16 16 15 15 14 14 14 14 14 14 13 13 13 12 12 12 12 12 12 12 12 12 11 11 11 11 11 10 10 10 10 9 9 9
13 14 14 14 13 12 13 12 15 15 15 15 16 16 16 15 15 14 14 14 14 13 13 13 13 13 13 12 12 12 12 12 12 12 12 11 11 11 11 11 11 10 10 10 9 9 9 9 8
13 14 14 13 12 12 13 12 13 15 15 15 15 16 15 15 15 14 14 13 13 13 13 13 13 13 12 12 12 12 12 12 11 11 11 11 11 11 10 10 10 10 9 9 9 9 8 8 8
13 13 12 12 11 10 12 12 13 15 15 15 15 15 15 15 14 13 13 13 13 13 13 12 12 12 12 12 12 12 11 11 11 11 10 10 10 10 10 10 10 9 9 9 9 8 8 8 7
12 10 9 9 9 10 13 13 13 15 16 15 15 15 15 14 14 13 13 12 12 12 12 12 12 12 12 11 11 11 11 11 11 11 10 10 10 10 10 9 9 9 9 8 8 8 8 7 7
10 10 10 10 10 11 13 12 14 15 15 15 15 15 14 14 13 13 12 12 12 11 11 11 11 11 11 11 11 11 11 10 10 10 10 9 9 9 9 9 9 8 8 8 8 7 7 7 7
10 10 12 11 11 11 12 13 14 14 14 14 14 14 13 13 13 12 12 11 11 11 11 11 11 11 11 11 10 10 10 10 10 9 9 9 9 9 9 8 8 8 8 7 7 7 7 6 6
11 11 10 9 9 10 12 13 12 12 13 13 12 12 13 12 12 12 11 11 11 11 11 11 11 10 10 10 10 10 9 9 9 9 9 9 8 8 8 8 8 7 7 7 7 6 6 6 6
9 10 10 9 10 10 11 12 14 13 13 12 12 13 12 12 12 11 11 10 10 10 10 10 10 10 9 9 9 9 9 9 9 8 8 8 8 8 8 7 7 7 6 6 6 6 6 5 5
9 9 9 9 9 10 10 11 13 12 12 12 12 12 12 12 11 11 10 10 10 10 9 9 9 9 9 9 8 8 8 8 8 8 8 7 7 7 7 7 6 6 6 6 6 5 5 5 5
Wind_Speed
10 11 8 3 4 6 8 7 4 2 2 4 6 4 5 6 5 9 5 8 12 14 15 14 13 13 13 12 12 12 11 11 10 10 10 10 9 9 9 8 8 9 9 8 8 8 8 8 8
10 9 6 4 5 7 7 9 5 3 6 6 4 2 2 5 8 9 7 8 11 14 15 14 14 13 13 12 12 11 11 11 10 10 10 9 9 8 8 8 8 8 8 8 8 8 7 8 7
10 10 4 4 6 7 4 3 5 6 7 3 1 1 2 5 8 6 7 9 11 13 14 15 15 13 12 12 12 11 11 10 10 9 9 9 8 8 8 8 8 8 8 8 7 7 6 7 6
5 4 5 7 12 9 5 2 6 6 4 3 3 3 4 6 5 8 8 9 12 13 15 16 15 13 13 12 11 10 10 10 9 9 8 8 8 7 7 7 7 7 7 7 6 5 5 5 5
5 4 6 9 13 9 4 3 3 3 5 6 4 2 5 6 10 10 8 9 11 12 14 15 15 13 12 11 11 10 9 9 8 8 7 7 7 7 6 6 6 6 6 5 5 5 4 4 4
4 5 7 11 12 9 5 3 3 5 4 5 4 3 5 7 8 8 7 8 10 11 13 15 15 14 12 11 10 9 9 8 7 7 6 6 6 6 6 5 5 5 5 5 5 4 4 3 2
6 5 9 11 9 7 6 4 5 5 5 4 3 2 7 8 7 7 7 7 9 11 11 11 12 12 12 11 10 9 8 8 7 6 6 6 6 6 5 5 5 5 4 4 4 3 2 2 1
5 4 9 11 10 6 3 3 1 3 2 1 1 2 6 9 8 7 7 7 8 8 9 10 10 11 10 10 11 10 9 8 7 6 5 5 5 5 5 4 4 4 4 3 3 2 1 0 1
5 6 8 9 7 3 4 3 2 2 1 1 2 4 7 11 8 7 7 6 6 6 6 8 8 8 9 10 10 10 9 8 7 6 6 5 4 5 5 5 4 4 3 3 2 1 1 2 3
6 7 8 4 4 2 2 3 3 3 5 4 3 5 8 8 8 7 7 7 8 7 7 7 7 7 7 7 9 8 8 8 7 6 6 5 4 4 5 6 6 4 4 3 3 3 3 3 3
7 8 7 5 4 5 2 2 3 5 7 7 7 9 9 8 7 7 6 6 7 7 7 6 6 7 6 5 5 5 5 6 5 5 6 5 4 4 4 5 4 4 4 3 3 3 3 3 2
9 10 9 5 1 3 5 4 5 8 6 2 3 6 7 7 7 7 7 6 6 7 7 6 6 6 6 5 4 4 3 3 2 3 4 4 2 2 2 3 3 2 2 2 2 2 3 3 3
14 11 9 5 3 4 6 8 7 9 5 3 2 5 7 7 7 6 6 5 6 6 7 6 6 6 6 4 3 4 3 3 4 3 3 3 2 1 1 2 2 2 1 1 0 1 1 2 2
7 8 9 7 7 7 8 10 9 9 6 6 7 7 8 8 8 7 6 6 6 7 8 7 7 7 7 5 4 3 4 4 4 4 3 3 3 2 2 2 2 1 1 1 0 1 1 1 1
7 8 10 10 10 7 6 11 13 12 8 9 9 9 9 9 8 8 7 6 6 6 7 7 7 7 7 6 5 4 4 4 3 3 4 3 3 3 2 1 1 1 2 1 1 2 1 1 1
8 9 9 10 11 8 7 11 9 9 9 10 9 9 9 9 9 7 7 6 5 6 6 6 6 7 7 6 5 4 4 4 3 4 4 3 3 3 3 1 1 2 2 1 1 1 1 1 1
9 10 12 8 11 9 10 9 6 7 8 9 9 9 9 8 8 6 6 6 6 6 6 6 7 7 7 6 5 4 4 4 4 4 3 4 4 4 3 2 1 2 2 1 1 1 1 2 2
9 10 11 10 9 10 11 11 8 7 9 9 9 9 8 8 8 7 6 6 6 6 6 6 6 7 7 6 4 4 4 3 3 3 3 4 4 4 3 2 1 2 1 1 1 1 1 1 2
7 9 9 6 5 7 10 12 11 9 9 10 9 8 8 7 7 7 7 6 6 6 7 7 7 7 6 5 5 5 4 3 3 3 4 4 4 4 3 2 1 1 1 1 1 1 1 2 2
12 11 9 3 4 4 9 13 12 12 11 9 9 8 8 7 6 6 7 6 6 6 6 7 7 7 6 6 5 4 4 3 3 3 3 4 4 4 3 3 2 1 1 1 0 1 1 1 2
14 11 9 5 4 6 7 10 13 10 10 9 8 8 7 7 7 7 7 6 6 6 6 6 6 6 6 6 5 4 3 3 2 3 2 2 4 4 4 3 2 2 2 2 1 0 1 1 1
12 9 8 6 4 5 6 6 7 9 10 10 10 8 7 6 6 6 6 6 6 6 6 6 6 6 6 7 7 7 6 5 4 4 3 3 3 3 3 3 3 2 2 1 1 0 0 1 1
5 3 6 7 6 6 7 6 8 8 10 11 9 7 7 6 6 6 6 5 5 6 6 6 6 6 6 7 7 7 5 4 3 3 4 4 3 3 3 3 3 2 1 1 1 0 0 1 1
4 2 1 3 3 7 10 9 7 7 10 10 9 8 7 6 6 6 6 5 4 5 6 6 6 6 6 7 7 7 7 6 5 4 4 4 3 2 3 3 3 2 2 1 1 1 1 1 1
7 6 3 4 6 8 7 8 7 4 5 8 8 7 6 7 7 7 7 6 6 6 6 6 7 6 6 6 6 7 7 7 7 5 5 4 3 2 3 3 2 2 2 1 1 1 1 1 2
10 10 6 5 6 5 7 8 5 3 4 6 7 7 6 6 6 7 7 6 6 7 7 7 7 6 6 6 6 5 6 5 5 5 4 4 4 3 3 3 3 2 2 1 1 0 1 1 2
8 10 6 3 3 3 6 5 3 3 5 5 6 6 5 5 6 6 6 6 6 7 7 8 7 6 6 5 5 5 5 5 5 4 4 3 3 3 4 3 3 2 2 1 1 1 1 1 2
5 5 4 5 5 6 7 7 6 7 6 5 5 5 4 4 5 6 5 5 5 5 6 7 7 6 5 5 5 4 4 4 4 4 4 3 3 3 3 3 3 2 2 1 1 1 1 1 2
7 7 6 5 5 5 5 3 1 6 7 6 5 5 4 4 5 5 5 5 5 5 5 6 6 6 5 5 4 4 4 4 4 4 4 4 3 3 3 3 2 2 1 1 1 1 1 2 3
8 8 8 6 6 4 3 3 3 4 3 4 4 5 4 4 5 5 5 5 5 5 5 5 5 5 5 5 5 4 4 4 4 4 4 4 3 3 2 3 2 1 0 0 1 2 2 3 3
Wind_Direction
268 253 240 238 233 231 240 243 250 84 63 41 28 17 23 29 44 112 140 110 115 122 127 130 127 127 124 121 116 112 111 110 111 109 106 101 97 95 95 92 92 92 89 85 84 81 79 77 76
270 246 235 234 237 232 232 222 229 120 84 58 33 359 41 74 82 108 117 116 122 122 127 131 128 128 125 122 119 116 114 111 108 109 107 102 99 96 95 94 93 91 90 86 81 78 78 77 77
264 248 228 228 232 235 242 159 137 99 95 116 137 13 23 78 95 107 118 129 121 117 121 127 129 128 126 124 122 118 115 112 111 110 109 105 103 102 97 93 93 90 88 87 83 78 76 83 81
240 223 241 241 243 244 264 74 87 112 133 164 158 111 81 55 77 109 129 133 123 122 121 127 130 129 128 126 125 122 118 115 114 113 112 109 105 105 102 97 94 90 89 89 88 84 81 84 84
238 229 228 238 245 248 262 79 104 160 165 177 179 134 96 78 93 114 135 131 125 123 122 131 131 131 130 129 127 126 124 123 121 119 119 117 112 106 103 103 98 93 90 91 88 83 85 86 85
225 235 231 233 235 229 222 160 186 212 197 179 165 162 115 123 116 126 130 125 119 120 123 131 134 132 130 129 128 130 130 130 129 127 123 121 117 110 107 109 108 105 98 94 91 80 81 79 75
237 244 248 252 243 221 199 163 201 217 202 190 165 157 128 128 127 136 131 122 118 121 126 132 138 136 135 133 132 131 131 131 134 134 129 122 119 119 116 115 114 114 112 107 99 86 72 64 39
256 265 251 252 252 238 169 159 192 269 234 137 96 168 135 138 137 134 124 115 116 124 134 139 142 145 144 141 141 139 137 138 138 137 137 132 128 131 134 135 131 124 120 122 117 103 71 332 287
260 246 245 244 250 241 134 162 178 329 300 27 34 54 111 128 135 136 131 125 126 131 136 144 144 142 146 148 150 147 146 149 148 147 153 151 153 160 161 162 153 148 148 154 164 195 249 259 265
219 237 241 276 314 323 133 181 175 211 210 206 158 110 123 141 151 158 162 159 154 158 157 151 148 144 138 143 146 153 155 157 163 163 162 171 173 169 161 159 159 169 180 199 215 235 240 246 247
212 239 253 273 324 339 309 245 209 233 229 212 182 157 151 161 172 178 182 175 166 158 150 148 148 143 140 137 142 145 151 153 170 165 160 159 159 140 133 136 154 175 189 207 231 236 247 256 244
231 242 256 264 319 307 281 262 244 243 253 257 167 149 156 176 190 193 192 186 160 148 149 148 143 143 143 137 141 138 131 132 133 149 151 139 114 104 119 126 144 157 176 188 212 238 260 269 267
232 241 246 258 256 249 269 263 259 251 262 284 212 181 186 197 203 205 198 182 161 159 158 157 153 150 147 142 146 142 136 127 131 123 124 116 101 132 99 98 114 118 116 134 244 256 281 295 298
238 246 249 239 236 238 246 254 247 244 226 221 212 211 207 208 206 203 194 186 176 169 165 164 164 159 153 158 162 156 137 120 121 116 119 110 104 93 88 83 72 69 70 40 309 311 294 305 327
250 250 248 234 224 220 239 252 236 232 214 217 216 214 208 209 208 203 190 188 183 172 163 163 168 162 160 162 166 152 138 129 125 125 141 136 114 101 90 105 94 73 72 33 7 354 349 332 323
231 235 235 218 207 198 204 250 230 205 201 215 219 218 208 207 205 198 184 182 174 165 162 162 167 165 161 159 160 147 140 137 137 134 136 131 120 114 92 106 98 68 65 40 360 11 344 340 327
213 224 226 215 198 192 206 250 229 189 199 216 219 217 210 203 199 192 180 176 171 163 160 162 165 168 160 158 153 147 142 140 131 121 120 125 127 122 103 109 82 67 65 34 15 16 355 338 327
206 217 225 215 193 201 218 244 243 211 212 221 222 216 205 198 195 186 180 171 167 163 160 162 164 163 157 157 151 145 140 143 128 126 122 124 123 124 108 110 95 74 96 79 49 7 356 350 325
251 241 240 227 184 209 234 247 248 233 224 225 220 213 203 198 184 172 168 160 159 164 165 164 163 167 160 160 162 162 164 159 146 136 129 129 128 126 117 122 122 107 127 122 83 40 349 344 351
247 253 251 228 184 225 254 258 252 238 227 222 220 212 201 196 180 168 164 162 169 169 163 160 160 163 161 162 165 162 155 153 147 135 126 125 125 126 129 135 149 144 130 111 90 70 26 331 6
233 239 247 241 213 233 264 269 242 229 218 215 218 213 199 189 183 174 171 170 168 170 167 162 160 160 160 154 145 138 125 119 125 149 162 143 129 134 135 144 149 150 149 165 197 158 127 289 315
233 231 245 251 231 241 208 270 244 210 207 207 209 200 194 189 176 169 168 167 168 168 159 156 157 156 156 154 157 160 166 171 181 171 162 145 127 128 135 139 140 146 146 155 193 186 194 162 266
223 224 235 240 242 266 229 245 266 205 204 201 194 186 181 178 176 170 168 166 163 154 151 153 150 150 152 159 164 166 168 169 160 151 151 153 148 141 136 135 134 135 139 146 147 132 293 215 225
183 167 251 258 238 247 222 219 261 213 202 188 180 176 174 174 172 166 159 154 152 144 146 151 153 156 157 161 165 167 168 165 161 165 166 166 163 156 151 142 141 137 138 158 186 206 219 237 251
181 160 170 194 212 237 206 214 241 228 178 168 167 165 165 167 167 164 159 158 157 154 157 158 158 162 163 163 167 168 168 167 170 173 172 167 166 165 172 151 144 144 149 166 202 209 238 248 246
197 194 193 196 209 222 198 221 238 174 128 126 136 145 153 156 163 164 161 162 161 163 162 160 161 163 166 166 168 163 163 166 169 169 167 167 167 170 168 159 152 162 161 166 160 201 240 263 251
190 216 244 284 276 250 223 219 202 136 121 124 131 138 153 160 158 154 153 156 161 164 163 161 161 160 160 158 155 153 155 156 159 155 149 152 156 160 157 153 151 150 147 150 173 221 248 270 264
219 198 193 210 217 231 232 219 205 172 165 153 148 150 155 152 150 147 147 148 151 154 152 150 150 151 149 147 153 151 150 151 144 137 143 149 146 142 141 141 150 148 148 170 185 223 238 259 272
200 209 203 206 232 219 232 234 13 151 156 157 157 143 141 149 148 144 144 137 136 131 131 140 144 142 140 142 144 139 136 128 122 128 135 135 127 123 131 139 134 131 154 199 213 248 259 262 274
216 211 201 204 224 229 263 275 9 84 103 128 129 125 129 140 139 135 133 127 127 127 128 131 135 136 138 137 130 128 126 127 127 122 122 118 117 115 122 128 111 99 61 278 248 263 275 267 273
Height
1489 1491 1494 1497 1499 1498 1491 1477 1467 1468 1469 1472 1473 1474 1477 1481 1486 1498 1498 1497 1498 1499 1500 1502 1504 1506 1508 1510 1512 1513 1515 1517 1518 1519 1520 1521 1522 1523 1524 1525 1525 1526 1527 1527 1528 1529 1529 1530 1530
1488 1492 1496 1496 1496 1497 1486 1472 1469 1469 1472 1475 1477 1478 1479 1484 1488 1493 1495 1497 1498 1499 1500 1502 1504 1506 1508 1510 1512 1514 1515 1517 1518 1519 1521 1521 1522 1523 1524 1525 1525 1526 1527 1527 1528 1529 1529 1530 1530
1488 1492 1495 1492 1489 1487 1476 1466 1467 1470 1474 1477 1479 1480 1483 1487 1490 1492 1495 1497 1498 1499 1500 1502 1504 1506 1508 1510 1512 1514 1515 1517 1518 1519 1521 1522 1523 1524 1524 1525 1526 1526 1527 1528 1528 1529 1530 1530 1531
1489 1493 1492 1489 1484 1474 1468 1466 1467 1471 1475 1478 1480 1482 1485 1489 1490 1492 1495 1497 1498 1499 1500 1502 1504 1506 1508 1510 1512 1514 1515 1517 1518 1519 1520 1522 1523 1524 1524 1525 1526 1527 1527 1528 1528 1529 1530 1530 1531
1489 1490 1489 1486 1479 1469 1465 1466 1469 1472 1475 1478 1480 1482 1486 1490 1490 1493 1495 1498 1498 1499 1501 1503 1505 1506 1508 1510 1512 1513 1515 1516 1518 1519 1520 1521 1522 1523 1524 1525 1526 1527 1527 1528 1528 1529 1530 1530 1531
1489 1485 1486 1483 1474 1467 1465 1467 1470 1472 1475 1477 1479 1482 1487 1490 1491 1493 1496 1498 1499 1499 1501 1503 1504 1506 1508 1510 1512 1513 1515 1516 1517 1519 1520 1521 1522 1523 1524 1525 1526 1526 1527 1528 1528 1529 1529 1530 1531
1486 1483 1481 1474 1470 1466 1464 1467 1470 1472 1474 1476 1478 1482 1486 1489 1491 1493 1496 1497 1498 1500 1501 1502 1504 1506 1508 1510 1511 1513 1514 1515 1517 1518 1519 1520 1521 1522 1523 1524 1525 1526 1526 1527 1527 1528 1529 1529 1530
1482 1481 1476 1472 1469 1465 1463 1466 1470 1472 1474 1476 1478 1480 1484 1488 1490 1493 1495 1497 1498 1500 1501 1502 1503 1505 1507 1509 1510 1512 1513 1515 1516 1517 1518 1519 1520 1521 1522 1523 1524 1525 1526 1526 1527 1527 1528 1528 1529
1481 1482 1476 1469 1466 1464 1463 1467 1471 1473 1474 1476 1478 1480 1482 1485 1489 1492 1494 1496 1498 1499 1501 1502 1503 1505 1506 1508 1510 1511 1512 1514 1515 1516 1517 1519 1519 1520 1521 1522 1523 1524 1524 1525 1526 1526 1527 1527 1528
1478 1478 1470 1465 1463 1463 1464 1467 1470 1473 1474 1476 1478 1480 1482 1484 1488 1490 1492 1494 1496 1498 1500 1501 1503 1504 1506 1507 1508 1510 1511 1513 1514 1515 1516 1518 1519 1520 1520 1521 1522 1523 1523 1524 1524 1525 1525 1526 1526
1473 1471 1467 1465 1465 1466 1467 1468 1470 1472 1473 1474 1476 1478 1481 1483 1486 1489 1491 1493 1495 1496 1498 1500 1501 1503 1504 1506 1507 1509 1510 1512 1513 1514 1516 1517 1518 1519 1519 1520 1521 1521 1522 1522 1523 1523 1524 1524 1525
1468 1467 1466 1466 1467 1468 1469 1469 1470 1471 1471 1472 1473 1476 1478 1481 1484 1486 1489 1491 1493 1494 1496 1498 1500 1501 1503 1504 1506 1507 1509 1510 1512 1513 1515 1516 1517 1518 1518 1519 1519 1520 1520 1521 1521 1522 1522 1522 1523
1466 1465 1465 1466 1467 1468 1469 1469 1470 1469 1470 1470 1472 1474 1476 1479 1482 1484 1487 1489 1490 1492 1494 1496 1497 1499 1501 1502 1504 1506 1507 1509 1510 1512 1513 1514 1515 1516 1517 1517 1517 1518 1519 1519 1519 1520 1520 1521 1521
1462 1463 1464 1465 1466 1467 1468 1468 1468 1466 1468 1469 1470 1472 1474 1476 1479 1481 1483 1485 1487 1489 1491 1493 1495 1497 1498 1500 1502 1504 1505 1507 1508 1510 1511 1512 1513 1514 1515 1515 1516 1516 1517 1517 1518 1518 1518 1518 1518
1462 1463 1463 1462 1463 1465 1468 1467 1463 1463 1465 1466 1468 1469 1471 1473 1476 1477 1479 1482 1484 1486 1488 1490 1492 1494 1495 1497 1499 1501 1503 1505 1506 1508 1509 1510 1511 1512 1513 1513 1514 1514 1515 1515 1516 1516 1516 1516 1516
1461 1463 1464 1457 1458 1461 1468 1465 1456 1457 1460 1462 1464 1466 1468 1470 1472 1474 1476 1478 1480 1482 1484 1486 1489 1491 1493 1495 1497 1499 1501 1502 1504 1505 1506 1508 1509 1510 1510 1511 1512 1512 1513 1513 1513 1514 1514 1513 1513
1460 1461 1458 1455 1453 1456 1461 1459 1453 1453 1456 1458 1460 1461 1463 1465 1468 1470 1472 1474 1476 1478 1480 1483 1485 1487 1489 1492 1494 1496 1498 1500 1501 1503 1504 1505 1506 1507 1508 1509 1510 1510 1510 1511 1511 1511 1511 1511 1510
1455 1455 1451 1451 1449 1452 1456 1455 1451 1451 1452 1454 1455 1457 1459 1461 1463 1466 1468 1470 1473 1475 1477 1479 1482 1484 1486 1489 1491 1493 1495 1497 1498 1500 1501 1502 1504 1505 1506 1506 1507 1508 1508 1508 1508 1508 1508 1508 1508
1445 1447 1447 1445 1445 1450 1452 1451 1449 1447 1448 1449 1450 1452 1454 1457 1459 1462 1464 1466 1469 1471 1473 1475 1478 1480 1483 1485 1487 1490 1492 1494 1495 1497 1499 1500 1501 1502 1503 1504 1504 1505 1505 1505 1506 1506 1506 1505 1505
1446 1448 1447 1446 1446 1449 1451 1448 1444 1442 1442 1443 1445 1447 1450 1453 1456 1458 1460 1462 1464 1467 1469 1472 1474 1477 1479 1481 1484 1487 1489 1491 1493 1494 1496 1497 1498 1499 1500 1501 1501 1502 1503 1503 1503 1503 1503 1503 1502
1444 1447 1446 1447 1448 1448 1451 1448 1439 1435 1436 1438 1440 1442 1445 1448 1451 1453 1456 1458 1460 1463 1466 1468 1470 1473 1476 1478 1481 1484 1486 1488 1490 1491 1493 1494 1495 1496 1497 1498 1499 1499 1500 1500 1500 1500 1500 1500 1500
1444 1442 1444 1446 1452 1454 1452 1456 1435 1431 1432 1433 1435 1438 1440 1444 1447 1449 1452 1454 1457 1459 1463 1465 1467 1470 1472 1475 1478 1480 1482 1483 1485 1488 1489 1491 1492 1493 1494 1495 1496 1496 1497 1497 1497 1498 1498 1498 1497
1440 1441 1443 1446 1451 1455 1450 1455 1439 1426 1428 1429 1430 1433 1436 1440 1443 1445 1448 1451 1454 1456 1459 1462 1464 1466 1469 1471 1474 1476 1478 1480 1483 1485 1486 1488 1489 1490 1491 1492 1493 1493 1494 1494 1495 1495 1495 1495 1494
1439 1443 1446 1448 1453 1460 1448 1451 1438 1425 1421 1422 1425 1429 1433 1436 1439 1442 1445 1448 1450 1453 1455 1458 1461 1463 1466 1468 1471 1473 1475 1477 1479 1481 1483 1484 1485 1487 1488 1489 1489 1490 1491 1491 1491 1491 1492 1492 1491
1440 1449 1458 1460 1462 1454 1436 1439 1430 1415 1413 1415 1420 1425 1429 1433 1436 1438 1441 1444 1446 1449 1452 1454 1457 1460 1463 1465 1467 1470 1472 1474 1475 1477 1479 1480 1482 1483 1484 1485 1486 1486 1487 1488 1488 1488 1488 1488 1488
1437 1441 1449 1454 1452 1442 1432 1433 1422 1412 1411 1413 1418 1423 1427 1430 1433 1435 1438 1440 1443 1445 1448 1451 1454 1457 1460 1462 1464 1467 1469 1471 1472 1474 1476 1477 1478 1479 1480 1481 1482 1483 1484 1484 1484 1484 1484 1484 1484
1436 1438 1434 1440 1437 1440 1433 1421 1416 1411 1413 1415 1418 1422 1425 1428 1430 1433 1435 1437 1440 1443 1445 1448 1451 1454 1457 1459 1461 1463 1466 1467 1469 1471 1472 1474 1475 1476 1477 1478 1479 1479 1480 1480 1480 1480 1480 1480 1479
1430 1431 1438 1444 1444 1441 1427 1421 1419 1415 1415 1416 1418 1421 1424 1427 1429 1431 1434 1436 1438 1440 1443 1446 1448 1451 1454 1456 1458 1460 1462 1464 1466 1467 1469 1470 1471 1473 1474 1474 1475 1475 1476 1477 1477 1477 1476 1476 1475
1431 1433 1433 1436 1434 1436 1431 1423 1406 1408 1411 1415 1417 1420 1423 1425 1427 1429 1432 1434 1436 1439 1441 1443 1446 1448 1451 1453 1455 1458 1460 1462 1463 1464 1466 1467 1468 1469 1470 1470 1471 1472 1472 1473 1473 1472 1472 1471 1470
1425 1426 1431 1436 1433 1428 1429 1426 1407 1408 1410 1413 1416 1419 1422 1424 1426 1428 1431 1433 1435 1437 1439 1441 1443 1446 1448 1451 1453 1455 1457 1458 1460 1461 1463 1464 1465 1466 1466 1466 1467 1468 1469 1469 1469 1468 1468 1467 1465